Torna al catalogo

STARLINK-31245

AttivoComunicazioniVLEO
NORAD 58891·PAYLOAD·🇺🇸 United States

Lanciato Jan 29, 2024 da Vandenberg Space Force Base

Loading…

Prossimi Passaggi (prossime 24 ore)

TLE

AggiornatoSource: CelesTrak SupGP

Epoca: Sep 14, 2026, 13:52 UTC

1 58891C 24020R   26257.57826389  .00045169  00000+0  13344-2 0  2577
2 58891  53.1563 119.7232 0001133  95.1117 217.5777 15.34372031    19

Traccia STARLINK-31245 in tempo reale con AllMySat

Download on the App Store